sat.trackr.live / text

‹ back to catalog

NULINK-2

NORAD 68994 · 2026-100Q

PAYLOAD ACTIVE UNKNOWN

§ Identity

Operator
Country
SING
Launch date
2026-05-03
Launch site
AFWTR
Launch vehicle
Mass (kg)
RCS (m²)

External: N2YO · Heavens-Above · Gunter

§ Orbital elements

Epoch: 2026-05-25T04:34:55.360128Z

Period
96.49 min
Inclination
97.7355°
Eccentricity
0.0002604
Mean motion
14.92387512 rev/d
Perigee alt
588.7 km
Apogee alt
592.3 km
Semi-major
6,968.6 km
B*
3.6456e-4
RAAN
43.0930°
Arg perigee
64.2525°
Mean anomaly
295.8962°
Rev number
327

§ Raw data

NULINK-21 68994U 26100Q   26145.19091852  .00003676  00000+0  36456-3 0  99962 68994  97.7355  43.0930 0002604  64.2525 295.8962 14.92387512  3274

JSON: /api/v1/satellites/68994 · /tle

For live sub-satellite position, see the globe view (requires WebGL).

§ Visibility from observer

Set your observer location to see the next 7 days of passes ≥ 10°. The values pass through the URL so the page stays shareable.

No JS? Fill the form by hand. The geolocation button needs JavaScript.